Tracking 25964 objects as of 12-Aug-2022
HD Live streaming from Space Station
objects crossing your sky now

TRISAT

Track TRISAT now!
10-day predictions


NORAD ID: 46280
Int'l Code: 2020-061J
Perigee: 529.1 km
Apogee: 536.3 km
Inclination: 97.4 °
Period: 95.1 minutes
Semi major axis: 6903 km
RCS: Unknown
Launch date: September 3, 2020
Source: Republic of Slovenia (SVN)
Launch site: FRENCH GUIANA (FRGUI)
aabbcc
Your satellite tracking list
Your tracking list is empty




NASA's NSSDC Master Catalog

Two Line Element Set (TLE):
1 46280U 20061J   22223.47346968  .00005072  00000-0  28691-3 0  9990
2 46280  97.4421 291.7806 0005180  77.5375 282.6436 15.13493033106785
Source of the keplerian elements: AFSPC